"Time","Value","Approval","myLocation"
"2023-05-06 00:00",37.9078666041862,"Approved","OW403"
"2023-05-06 01:00",37.8958591065292,"Approved","OW403"
"2023-05-06 02:00",37.8918516088722,"Approved","OW403"
"2023-05-06 03:00",37.8908441112152,"Approved","OW403"
"2023-05-06 04:00",37.9208366135583,"Approved","OW403"
"2023-05-06 05:00",37.9528291159013,"Approved","OW403"
"2023-05-06 06:00",37.9528216182443,"Approved","OW403"
"2023-05-06 07:00",37.9498141205873,"Approved","OW403"
"2023-05-06 08:00",37.9518066229303,"Approved","OW403"
"2023-05-06 09:00",37.9017991252734,"Approved","OW403"
"2023-05-06 10:00",37.8907916276164,"Approved","OW403"
"2023-05-06 11:00",37.8867841299594,"Approved","OW403"
"2023-05-06 12:00",37.8847766323024,"Approved","OW403"
"2023-05-06 13:00",37.8837691346454,"Approved","OW403"
"2023-05-06 14:00",37.8837616369884,"Approved","OW403"
"2023-05-06 15:00",37.8887541393315,"Approved","OW403"
"2023-05-06 16:00",37.8827466416745,"Approved","OW403"
"2023-05-06 17:00",37.8807391440175,"Approved","OW403"
"2023-05-06 18:00",37.8857316463605,"Approved","OW403"
"2023-05-06 19:00",37.8867241487035,"Approved","OW403"
"2023-05-06 20:00",37.8877166510465,"Approved","OW403"
"2023-05-06 21:00",37.8837091533896,"Approved","OW403"
"2023-05-06 22:00",37.8797016557326,"Approved","OW403"
"2023-05-06 23:00",37.8796941580756,"Approved","OW403"
"2023-05-07 00:00",37.8786866604186,"Approved","OW403"
"2023-05-07 01:00",37.8806791627616,"Approved","OW403"
"2023-05-07 02:00",37.8796716651047,"Approved","OW403"
"2023-05-07 03:00",37.8806641674477,"Approved","OW403"
"2023-05-07 04:00",37.9076566697907,"Approved","OW403"
"2023-05-07 05:00",37.9446491721337,"Approved","OW403"
"2023-05-07 06:00",37.9416416744767,"Approved","OW403"
"2023-05-07 07:00",37.9376341768197,"Approved","OW403"
"2023-05-07 08:00",37.9406266791628,"Approved","OW403"
"2023-05-07 09:00",37.8876191815058,"Approved","OW403"
"2023-05-07 10:00",37.8816116838488,"Approved","OW403"
"2023-05-07 11:00",37.8796041861918,"Approved","OW403"
"2023-05-07 12:00",37.8745966885348,"Approved","OW403"
"2023-05-07 13:00",37.8715891908778,"Approved","OW403"
"2023-05-07 14:00",37.8715816932209,"Approved","OW403"
"2023-05-07 15:00",37.8775741955639,"Approved","OW403"
"2023-05-07 16:00",37.8815666979069,"Approved","OW403"
"2023-05-07 17:00",37.8935592002499,"Approved","OW403"
"2023-05-07 18:00",37.8845517025929,"Approved","OW403"
"2023-05-07 19:00",37.880544204936,"Approved","OW403"
"2023-05-07 20:00",37.878536707279,"Approved","OW403"
"2023-05-07 21:00",37.879529209622,"Approved","OW403"
"2023-05-07 22:00",37.876521711965,"Approved","OW403"
"2023-05-07 23:00",37.876514214308,"Approved","OW403"
"2023-05-08 00:00",37.875506716651,"Approved","OW403"
"2023-05-08 01:00",37.8744992189941,"Approved","OW403"
"2023-05-08 02:00",37.8994917213371,"Approved","OW403"
"2023-05-08 03:00",37.9364842236801,"Approved","OW403"
"2023-05-08 04:00",37.9384767260231,"Approved","OW403"
"2023-05-08 05:00",37.9364692283661,"Approved","OW403"
"2023-05-08 06:00",37.9374617307092,"Approved","OW403"
"2023-05-08 07:00",37.8824542330522,"Approved","OW403"
"2023-05-08 08:00",37.8804467353952,"Approved","OW403"
"2023-05-08 09:00",37.8804392377382,"Approved","OW403"
"2023-05-08 10:00",37.8714317400812,"Approved","OW403"
"2023-05-08 11:00",37.8704242424242,"Approved","OW403"
"2023-05-08 12:00",37.8954167447673,"Approved","OW403"
"2023-05-08 13:00",37.9324092471103,"Approved","OW403"
"2023-05-08 14:00",37.9334017494533,"Approved","OW403"
"2023-05-08 15:00",37.9403942517963,"Approved","OW403"
"2023-05-08 16:00",37.9363867541393,"Approved","OW403"
"2023-05-08 17:00",37.8773792564823,"Approved","OW403"
"2023-05-08 18:00",37.8753717588254,"Approved","OW403"
"2023-05-08 19:00",37.8693642611684,"Approved","OW403"
"2023-05-08 20:00",37.8643567635114,"Approved","OW403"
"2023-05-08 21:00",37.8623492658544,"Approved","OW403"
"2023-05-08 22:00",37.8643417681974,"Approved","OW403"
"2023-05-08 23:00",37.8753342705405,"Approved","OW403"
"2023-05-09 00:00",37.8773267728835,"Approved","OW403"
"2023-05-09 01:00",37.8773192752265,"Approved","OW403"
"2023-05-09 02:00",37.8933117775695,"Approved","OW403"
"2023-05-09 03:00",37.9293042799125,"Approved","OW403"
"2023-05-09 04:00",37.9322967822555,"Approved","OW403"
"2023-05-09 05:00",37.9322892845986,"Approved","OW403"
"2023-05-09 06:00",37.9352817869416,"Approved","OW403"
"2023-05-09 07:00",37.8802742892846,"Approved","OW403"
"2023-05-09 08:00",37.8782667916276,"Approved","OW403"
"2023-05-09 09:00",37.8812592939706,"Approved","OW403"
"2023-05-09 10:00",37.8772517963137,"Approved","OW403"
"2023-05-09 11:00",37.8752442986567,"Approved","OW403"
"2023-05-09 12:00",37.8972368009997,"Approved","OW403"
"2023-05-09 13:00",37.9352293033427,"Approved","OW403"
"2023-05-09 14:00",37.9332218056857,"Approved","OW403"
"2023-05-09 15:00",37.9332143080287,"Approved","OW403"
"2023-05-09 16:00",37.9372068103718,"Approved","OW403"
"2023-05-09 17:00",37.8831993127148,"Approved","OW403"
"2023-05-09 18:00",37.8791918150578,"Approved","OW403"
"2023-05-09 19:00",37.8761843174008,"Approved","OW403"
"2023-05-09 20:00",37.8741768197438,"Approved","OW403"
"2023-05-09 21:00",37.8681693220868,"Approved","OW403"
"2023-05-09 22:00",37.8701618244299,"Approved","OW403"
"2023-05-09 23:00",37.8671543267729,"Approved","OW403"
"2023-05-10 00:00",37.8651468291159,"Approved","OW403"
"2023-05-10 01:00",37.8651393314589,"Approved","OW403"
"2023-05-10 02:00",37.9001318338019,"Approved","OW403"
"2023-05-10 03:00",37.941124336145,"Approved","OW403"
"2023-05-10 04:00",37.946116838488,"Approved","OW403"
"2023-05-10 05:00",37.945109340831,"Approved","OW403"
"2023-05-10 06:00",37.942101843174,"Approved","OW403"
"2023-05-10 07:00",37.883094345517,"Approved","OW403"
"2023-05-10 08:00",37.87808684786,"Approved","OW403"
"2023-05-10 09:00",37.8780793502031,"Approved","OW403"
"2023-05-10 10:00",37.8670718525461,"Approved","OW403"
"2023-05-10 11:00",37.8640643548891,"Approved","OW403"
"2023-05-10 12:00",37.8900568572321,"Approved","OW403"
"2023-05-10 13:00",37.9260493595751,"Approved","OW403"
"2023-05-10 14:00",37.9280418619182,"Approved","OW403"
"2023-05-10 15:00",37.9310343642612,"Approved","OW403"
"2023-05-10 16:00",37.9320268666042,"Approved","OW403"
"2023-05-10 17:00",37.8820193689472,"Approved","OW403"
"2023-05-10 18:00",37.8780118712902,"Approved","OW403"
"2023-05-10 19:00",37.8790043736332,"Approved","OW403"
"2023-05-10 19:27",37.8760009996876,"Approved","OW403"
"2023-05-10 20:00",37.867,"Approved","OW403"
"2023-05-10 21:00",37.8629973792947,"Approved","OW403"
"2023-05-10 22:00",37.8589947585894,"Approved","OW403"
"2023-05-10 23:00",37.854992137884,"Approved","OW403"
"2023-05-11 00:00",37.8529895171787,"Approved","OW403"
"2023-05-11 01:00",37.8549868964734,"Approved","OW403"
"2023-05-11 02:00",37.8839842757681,"Approved","OW403"
"2023-05-11 03:00",37.9209816550628,"Approved","OW403"
"2023-05-11 04:00",37.9269790343574,"Approved","OW403"
"2023-05-11 05:00",37.9239764136521,"Approved","OW403"
"2023-05-11 06:00",37.9199737929468,"Approved","OW403"
"2023-05-11 07:00",37.8639711722415,"Approved","OW403"
"2023-05-11 08:00",37.8639685515362,"Approved","OW403"
"2023-05-11 09:00",37.8659659308309,"Approved","OW403"
"2023-05-11 10:00",37.8609633101255,"Approved","OW403"
"2023-05-11 11:00",37.8589606894202,"Approved","OW403"
"2023-05-11 12:00",37.8949580687149,"Approved","OW403"
"2023-05-11 13:00",37.9369554480096,"Approved","OW403"
"2023-05-11 14:00",37.9369528273043,"Approved","OW403"
"2023-05-11 15:00",37.9359502065989,"Approved","OW403"
"2023-05-11 16:00",37.9269475858936,"Approved","OW403"
"2023-05-11 17:00",37.8669449651883,"Approved","OW403"
"2023-05-11 18:00",37.876942344483,"Approved","OW403"
"2023-05-11 19:00",37.8679397237777,"Approved","OW403"
"2023-05-11 20:00",37.8649371030723,"Approved","OW403"
"2023-05-11 21:00",37.859934482367,"Approved","OW403"
"2023-05-11 22:00",37.8559318616617,"Approved","OW403"
"2023-05-11 23:00",37.8469292409564,"Approved","OW403"
"2023-05-12 00:00",37.8539266202511,"Approved","OW403"
"2023-05-12 01:00",37.8569239995457,"Approved","OW403"
"2023-05-12 02:00",37.8839213788404,"Approved","OW403"
"2023-05-12 03:00",37.9149187581351,"Approved","OW403"
"2023-05-12 04:00",37.9159161374298,"Approved","OW403"
"2023-05-12 05:00",37.9149135167245,"Approved","OW403"
"2023-05-12 06:00",37.9179108960192,"Approved","OW403"
"2023-05-12 07:00",37.8629082753138,"Approved","OW403"
"2023-05-12 08:00",37.8639056546085,"Approved","OW403"
"2023-05-12 09:00",37.8669030339032,"Approved","OW403"
"2023-05-12 10:00",37.8599004131979,"Approved","OW403"
"2023-05-12 11:00",37.8558977924926,"Approved","OW403"
"2023-05-12 12:00",37.8938951717872,"Approved","OW403"
"2023-05-12 13:00",37.9338925510819,"Approved","OW403"
"2023-05-12 14:00",37.9298899303766,"Approved","OW403"
"2023-05-12 15:00",37.9418873096713,"Approved","OW403"
"2023-05-12 16:00",37.934884688966,"Approved","OW403"
"2023-05-12 17:00",37.8778820682606,"Approved","OW403"
"2023-05-12 18:00",37.8748794475553,"Approved","OW403"
"2023-05-12 19:00",37.86687682685,"Approved","OW403"
"2023-05-12 20:00",37.8648742061447,"Approved","OW403"
"2023-05-12 21:00",37.8618715854394,"Approved","OW403"
"2023-05-12 22:00",37.859868964734,"Approved","OW403"
"2023-05-12 23:00",37.8578663440287,"Approved","OW403"
"2023-05-13 00:00",37.8588637233234,"Approved","OW403"
"2023-05-13 01:00",37.8558611026181,"Approved","OW403"
"2023-05-13 02:00",37.8778584819128,"Approved","OW403"
"2023-05-13 03:00",37.9178558612074,"Approved","OW403"
"2023-05-13 04:00",37.9198532405021,"Approved","OW403"
"2023-05-13 05:00",37.9178506197968,"Approved","OW403"
"2023-05-13 06:00",37.9178479990915,"Approved","OW403"
"2023-05-13 07:00",37.8618453783862,"Approved","OW403"
"2023-05-13 08:00",37.8618427576809,"Approved","OW403"
"2023-05-13 09:00",37.8648401369755,"Approved","OW403"
"2023-05-13 10:00",37.8598375162702,"Approved","OW403"
"2023-05-13 11:00",37.8598348955649,"Approved","OW403"
"2023-05-13 12:00",37.8948322748596,"Approved","OW403"
"2023-05-13 13:00",37.9338296541543,"Approved","OW403"
"2023-05-13 14:00",37.9278270334489,"Approved","OW403"
"2023-05-13 15:00",37.9308244127436,"Approved","OW403"
"2023-05-13 16:00",37.9258217920383,"Approved","OW403"
"2023-05-13 17:00",37.861819171333,"Approved","OW403"
"2023-05-13 18:00",37.8558165506277,"Approved","OW403"
"2023-05-13 19:00",37.8568139299223,"Approved","OW403"
"2023-05-13 20:00",37.854811309217,"Approved","OW403"
"2023-05-13 21:00",37.8528086885117,"Approved","OW403"
"2023-05-13 22:00",37.8508060678064,"Approved","OW403"
"2023-05-13 23:00",37.8478034471011,"Approved","OW403"
"2023-05-14 00:00",37.8468008263957,"Approved","OW403"
"2023-05-14 01:00",37.8377982056904,"Approved","OW403"
"2023-05-14 02:00",37.8647955849851,"Approved","OW403"
"2023-05-14 03:00",37.8997929642798,"Approved","OW403"
"2023-05-14 04:00",37.9127903435745,"Approved","OW403"
"2023-05-14 05:00",37.9097877228691,"Approved","OW403"
"2023-05-14 06:00",37.9027851021638,"Approved","OW403"
"2023-05-14 07:00",37.8457824814585,"Approved","OW403"
"2023-05-14 08:00",37.8447798607532,"Approved","OW403"
"2023-05-14 09:00",37.8467772400479,"Approved","OW403"
"2023-05-14 10:00",37.8387746193426,"Approved","OW403"
"2023-05-14 11:00",37.8357719986372,"Approved","OW403"
"2023-05-14 12:00",37.8697693779319,"Approved","OW403"
"2023-05-14 13:00",37.9097667572266,"Approved","OW403"
"2023-05-14 14:00",37.9107641365213,"Approved","OW403"
"2023-05-14 15:00",37.908761515816,"Approved","OW403"
"2023-05-14 16:00",37.8977588951106,"Approved","OW403"
"2023-05-14 17:00",37.8357562744053,"Approved","OW403"
"2023-05-14 18:00",37.8297536537,"Approved","OW403"
"2023-05-14 19:00",37.8257510329947,"Approved","OW403"
"2023-05-14 20:00",37.8237484122894,"Approved","OW403"
"2023-05-14 21:00",37.822745791584,"Approved","OW403"
"2023-05-14 22:00",37.8467431708787,"Approved","OW403"
"2023-05-14 23:00",37.8467405501734,"Approved","OW403"
"2023-05-15 00:00",37.8247379294681,"Approved","OW403"
"2023-05-15 01:00",37.8217353087628,"Approved","OW403"
"2023-05-15 02:00",37.8497326880575,"Approved","OW403"
"2023-05-15 03:00",37.8897300673521,"Approved","OW403"
"2023-05-15 04:00",37.8917274466468,"Approved","OW403"
"2023-05-15 05:00",37.8867248259415,"Approved","OW403"
"2023-05-15 06:00",37.8897222052362,"Approved","OW403"
"2023-05-15 07:00",37.8317195845309,"Approved","OW403"
"2023-05-15 08:00",37.8307169638255,"Approved","OW403"
"2023-05-15 09:00",37.8337143431202,"Approved","OW403"
"2023-05-15 10:00",37.8297117224149,"Approved","OW403"
"2023-05-15 11:00",37.8287091017096,"Approved","OW403"
"2023-05-15 12:00",37.8627064810043,"Approved","OW403"
"2023-05-15 13:00",37.9007038602989,"Approved","OW403"
"2023-05-15 14:00",37.9037012395936,"Approved","OW403"
"2023-05-15 15:00",37.8996986188883,"Approved","OW403"
"2023-05-15 16:00",37.890695998183,"Approved","OW403"
"2023-05-15 17:00",37.8266933774777,"Approved","OW403"
"2023-05-15 18:00",37.8206907567723,"Approved","OW403"
"2023-05-15 19:00",37.817688136067,"Approved","OW403"
"2023-05-15 20:00",37.8156855153617,"Approved","OW403"
"2023-05-15 21:00",37.8246828946564,"Approved","OW403"
"2023-05-15 22:00",37.8696802739511,"Approved","OW403"
"2023-05-15 23:00",37.8306776532457,"Approved","OW403"
"2023-05-16 00:00",37.8176750325404,"Approved","OW403"
"2023-05-16 01:00",37.8176724118351,"Approved","OW403"
"2023-05-16 02:00",37.8466697911298,"Approved","OW403"
"2023-05-16 03:00",37.9006671704245,"Approved","OW403"
"2023-05-16 04:00",37.9126645497191,"Approved","OW403"
"2023-05-16 05:00",37.8876619290138,"Approved","OW403"
"2023-05-16 06:00",37.8866593083085,"Approved","OW403"
"2023-05-16 07:00",37.8296566876032,"Approved","OW403"
"2023-05-16 08:00",37.8296540668979,"Approved","OW403"
"2023-05-16 09:00",37.8316514461926,"Approved","OW403"
"2023-05-16 10:00",37.8226488254872,"Approved","OW403"
"2023-05-16 11:00",37.8206462047819,"Approved","OW403"
"2023-05-16 12:00",37.8576435840766,"Approved","OW403"
"2023-05-16 13:00",37.8986409633713,"Approved","OW403"
"2023-05-16 14:00",37.899638342666,"Approved","OW403"
"2023-05-16 15:00",37.8976357219606,"Approved","OW403"
"2023-05-16 16:00",37.8896331012553,"Approved","OW403"
"2023-05-16 17:00",37.83263048055,"Approved","OW403"
"2023-05-16 18:00",37.8276278598447,"Approved","OW403"
"2023-05-16 19:00",37.8246252391394,"Approved","OW403"
"2023-05-16 20:00",37.822622618434,"Approved","OW403"
"2023-05-16 21:00",37.8196199977287,"Approved","OW403"
"2023-05-16 22:00",37.8156173770234,"Approved","OW403"
"2023-05-16 23:00",37.8176147563181,"Approved","OW403"
"2023-05-17 00:00",37.8256121356128,"Approved","OW403"
"2023-05-17 01:00",37.8276095149075,"Approved","OW403"
"2023-05-17 02:00",37.8576068942021,"Approved","OW403"
"2023-05-17 03:00",37.8946042734968,"Approved","OW403"
"2023-05-17 04:00",37.8886016527915,"Approved","OW403"
"2023-05-17 05:00",37.8835990320862,"Approved","OW403"
"2023-05-17 06:00",37.8855964113809,"Approved","OW403"
"2023-05-17 07:00",37.8295937906755,"Approved","OW403"
"2023-05-17 08:00",37.8305911699702,"Approved","OW403"
"2023-05-17 09:00",37.8325885492649,"Approved","OW403"
"2023-05-17 10:00",37.8275859285596,"Approved","OW403"
"2023-05-17 11:00",37.8285833078543,"Approved","OW403"
"2023-05-17 12:00",37.8625806871489,"Approved","OW403"
"2023-05-17 13:00",37.8985780664436,"Approved","OW403"
"2023-05-17 14:00",37.8985754457383,"Approved","OW403"
"2023-05-17 15:00",37.897572825033,"Approved","OW403"
"2023-05-17 16:00",37.8845702043277,"Approved","OW403"
"2023-05-17 17:00",37.8255675836223,"Approved","OW403"
"2023-05-17 18:00",37.817564962917,"Approved","OW403"
"2023-05-17 19:00",37.8105623422117,"Approved","OW403"
"2023-05-17 20:00",37.8065597215064,"Approved","OW403"
"2023-05-17 21:00",37.8065571008011,"Approved","OW403"
"2023-05-17 22:00",37.8045544800957,"Approved","OW403"
"2023-05-17 23:00",37.8025518593904,"Approved","OW403"
"2023-05-18 00:00",37.8005492386851,"Approved","OW403"
"2023-05-18 01:00",37.8045466179798,"Approved","OW403"
"2023-05-18 02:00",37.8385439972745,"Approved","OW403"
"2023-05-18 03:00",37.8825413765692,"Approved","OW403"
"2023-05-18 04:00",37.8865387558638,"Approved","OW403"
"2023-05-18 05:00",37.8725361351585,"Approved","OW403"
"2023-05-18 06:00",37.8735335144532,"Approved","OW403"
"2023-05-18 07:00",37.8185308937479,"Approved","OW403"
"2023-05-18 08:00",37.8195282730426,"Approved","OW403"
"2023-05-18 09:00",37.8255256523372,"Approved","OW403"
"2023-05-18 10:00",37.8195230316319,"Approved","OW403"
"2023-05-18 11:00",37.8185204109266,"Approved","OW403"
"2023-05-18 12:00",37.8535177902213,"Approved","OW403"
"2023-05-18 13:00",37.890515169516,"Approved","OW403"
"2023-05-18 14:00",37.8925125488106,"Approved","OW403"
"2023-05-18 15:00",37.8925099281053,"Approved","OW403"
"2023-05-18 16:00",37.8845073074,"Approved","OW403"
"2023-05-18 17:00",37.8335046866947,"Approved","OW403"
"2023-05-18 18:00",37.8225020659894,"Approved","OW403"
"2023-05-18 19:00",37.816499445284,"Approved","OW403"
"2023-05-18 20:00",37.8214968245787,"Approved","OW403"
"2023-05-18 21:00",37.8144942038734,"Approved","OW403"
"2023-05-18 22:00",37.8134915831681,"Approved","OW403"
"2023-05-18 23:00",37.8124889624628,"Approved","OW403"
"2023-05-19 00:00",37.8104863417574,"Approved","OW403"
"2023-05-19 01:00",37.8104837210521,"Approved","OW403"
"2023-05-19 02:00",37.8514811003468,"Approved","OW403"
"2023-05-19 03:00",37.8904784796415,"Approved","OW403"
"2023-05-19 04:00",37.8854758589362,"Approved","OW403"
"2023-05-19 05:00",37.8854732382309,"Approved","OW403"
"2023-05-19 06:00",37.8854706175255,"Approved","OW403"
"2023-05-19 07:00",37.8334679968202,"Approved","OW403"
"2023-05-19 08:00",37.8324653761149,"Approved","OW403"
"2023-05-19 09:00",37.8364627554096,"Approved","OW403"
"2023-05-19 10:00",37.8334601347043,"Approved","OW403"
"2023-05-19 11:00",37.8324575139989,"Approved","OW403"
"2023-05-19 12:00",37.8644548932936,"Approved","OW403"
"2023-05-19 13:00",37.8984522725883,"Approved","OW403"
"2023-05-19 14:00",37.901449651883,"Approved","OW403"
"2023-05-19 15:00",37.8974470311777,"Approved","OW403"
"2023-05-19 16:00",37.8874444104723,"Approved","OW403"
"2023-05-19 17:00",37.828441789767,"Approved","OW403"
"2023-05-19 18:00",37.8244391690617,"Approved","OW403"
"2023-05-19 19:00",37.8214365483564,"Approved","OW403"
"2023-05-19 20:00",37.8194339276511,"Approved","OW403"
"2023-05-19 21:00",37.8264313069457,"Approved","OW403"
"2023-05-19 22:00",37.8264286862404,"Approved","OW403"
"2023-05-19 23:00",37.8234260655351,"Approved","OW403"
"2023-05-20 00:00",37.8264234448298,"Approved","OW403"
"2023-05-20 01:00",37.8244208241245,"Approved","OW403"
"2023-05-20 02:00",37.8594182034191,"Approved","OW403"
"2023-05-20 03:00",37.8954155827138,"Approved","OW403"
"2023-05-20 04:00",37.9014129620085,"Approved","OW403"
"2023-05-20 05:00",37.8984103413032,"Approved","OW403"
"2023-05-20 06:00",37.8934077205979,"Approved","OW403"
"2023-05-20 07:00",37.8344050998925,"Approved","OW403"
"2023-05-20 08:00",37.8334024791872,"Approved","OW403"
"2023-05-20 09:00",37.8373998584819,"Approved","OW403"
"2023-05-20 10:00",37.8343972377766,"Approved","OW403"
"2023-05-20 11:00",37.8313946170713,"Approved","OW403"
"2023-05-20 12:00",37.868391996366,"Approved","OW403"
"2023-05-20 13:00",37.9073893756606,"Approved","OW403"
"2023-05-20 14:00",37.8623867549553,"Approved","OW403"
"2023-05-20 15:00",37.85238413425,"Approved","OW403"
"2023-05-20 16:00",37.8413815135447,"Approved","OW403"
"2023-05-20 17:00",37.8563788928394,"Approved","OW403"
"2023-05-20 18:00",37.833376272134,"Approved","OW403"
"2023-05-20 19:00",37.8253736514287,"Approved","OW403"
"2023-05-20 20:00",37.8173710307234,"Approved","OW403"
"2023-05-20 21:00",37.8163684100181,"Approved","OW403"
"2023-05-20 22:00",37.8143657893128,"Approved","OW403"
"2023-05-20 23:00",37.8113631686074,"Approved","OW403"
"2023-05-21 00:00",37.8123605479021,"Approved","OW403"
"2023-05-21 01:00",37.8103579271968,"Approved","OW403"
"2023-05-21 02:00",37.8333553064915,"Approved","OW403"
"2023-05-21 03:00",37.8683526857862,"Approved","OW403"
"2023-05-21 04:00",37.8723500650808,"Approved","OW403"
"2023-05-21 05:00",37.8703474443755,"Approved","OW403"
"2023-05-21 06:00",37.8703448236702,"Approved","OW403"
"2023-05-21 07:00",37.8133422029649,"Approved","OW403"
"2023-05-21 08:00",37.8103395822596,"Approved","OW403"
"2023-05-21 09:00",37.8223369615543,"Approved","OW403"
"2023-05-21 10:00",37.8203343408489,"Approved","OW403"
"2023-05-21 11:00",37.8183317201436,"Approved","OW403"
"2023-05-21 12:00",37.8533290994383,"Approved","OW403"
"2023-05-21 13:00",37.889326478733,"Approved","OW403"
"2023-05-21 14:00",37.8863238580277,"Approved","OW403"
"2023-05-21 15:00",37.8803212373223,"Approved","OW403"
"2023-05-21 16:00",37.871318616617,"Approved","OW403"
"2023-05-21 17:00",37.8113159959117,"Approved","OW403"
"2023-05-21 18:00",37.8043133752064,"Approved","OW403"
"2023-05-21 19:00",37.7993107545011,"Approved","OW403"
"2023-05-21 20:00",37.8033081337957,"Approved","OW403"
"2023-05-21 21:00",37.8003055130904,"Approved","OW403"
"2023-05-21 22:00",37.7993028923851,"Approved","OW403"
"2023-05-21 23:00",37.7913002716798,"Approved","OW403"
"2023-05-22 00:00",37.7882976509745,"Approved","OW403"
"2023-05-22 01:00",37.7872950302691,"Approved","OW403"
"2023-05-22 02:00",37.8152924095638,"Approved","OW403"
"2023-05-22 03:00",37.8532897888585,"Approved","OW403"
"2023-05-22 04:00",37.8512871681532,"Approved","OW403"
"2023-05-22 05:00",37.8502845474479,"Approved","OW403"
"2023-05-22 06:00",37.8522819267425,"Approved","OW403"
"2023-05-22 07:00",37.7962793060372,"Approved","OW403"
"2023-05-22 08:00",37.7972766853319,"Approved","OW403"
"2023-05-22 09:00",37.8152740646266,"Approved","OW403"
"2023-05-22 10:00",37.8152714439213,"Approved","OW403"
"2023-05-22 11:00",37.812268823216,"Approved","OW403"
"2023-05-22 12:00",37.8412662025106,"Approved","OW403"
"2023-05-22 13:00",37.8752635818053,"Approved","OW403"
"2023-05-22 14:00",37.8762609611,"Approved","OW403"
"2023-05-22 15:00",37.8772583403947,"Approved","OW403"
"2023-05-22 16:00",37.8652557196894,"Approved","OW403"
"2023-05-22 17:00",37.806253098984,"Approved","OW403"
"2023-05-22 18:00",37.8032504782787,"Approved","OW403"
"2023-05-22 19:00",37.8022478575734,"Approved","OW403"
"2023-05-22 20:00",37.8012452368681,"Approved","OW403"
"2023-05-22 21:00",37.8022426161628,"Approved","OW403"
"2023-05-22 22:00",37.8022399954574,"Approved","OW403"
"2023-05-22 23:00",37.8042373747521,"Approved","OW403"
"2023-05-23 00:00",37.8032347540468,"Approved","OW403"
"2023-05-23 01:00",37.7982321333415,"Approved","OW403"
"2023-05-23 02:00",37.8232295126362,"Approved","OW403"
"2023-05-23 03:00",37.8572268919308,"Approved","OW403"
"2023-05-23 04:00",37.8572242712255,"Approved","OW403"
"2023-05-23 05:00",37.8562216505202,"Approved","OW403"
"2023-05-23 06:00",37.8572190298149,"Approved","OW403"
"2023-05-23 07:00",37.8012164091096,"Approved","OW403"
"2023-05-23 08:00",37.7992137884043,"Approved","OW403"
"2023-05-23 09:00",37.8082111676989,"Approved","OW403"
"2023-05-23 10:00",37.8112085469936,"Approved","OW403"
"2023-05-23 11:00",37.8112059262883,"Approved","OW403"
"2023-05-23 12:00",37.840203305583,"Approved","OW403"
"2023-05-23 13:00",37.8742006848777,"Approved","OW403"
"2023-05-23 14:00",37.8711980641723,"Approved","OW403"
"2023-05-23 15:00",37.866195443467,"Approved","OW403"
"2023-05-23 16:00",37.8561928227617,"Approved","OW403"
"2023-05-23 17:00",37.7961902020564,"Approved","OW403"
"2023-05-23 18:00",37.7931875813511,"Approved","OW403"
"2023-05-23 19:00",37.7901849606457,"Approved","OW403"